Home   Weather   Breckenridge   Past weeks

Flag for USA Past Weather in Breckenridge, Colorado, USA — Yesterday and Last 2 Weeks

Now
25 °F

Snow. Low clouds.


Feels Like: N/A
Forecast: 32 / 45 °F
Wind: N/A

Location: Copper Mountain - Red Cliff Pass

Current Time: Apr 25, 2017 at 2:40:19 am

Latest Report: Apr 25, 2017 at 1:55 am


Visibility: 1 mi

Pressure: 29.79 "Hg (20.56 "Hg at 2921m altitude)

Humidity: 80%

Dew Point: 19 °F

Location of BreckenridgeLocation

Past Weather in Breckenridge — Graph

°F

Breckenridge Temperature Yesterday

Maximum temperature yesterday: 39 °F (at 12:15 am)
Minimum temperature yesterday: 32 °F (at 3:55 am)
Average temperature yesterday: 34 °F

High & Low Weather Summary for the Past Weeks

 TemperatureHumidityPressure
High52 °F (Apr 12, 3:53 pm)87% (Apr 19, 5:55 am)30.43 "Hg (Apr 19, 5:55 am)
Low10 °F (Apr 10, 6:15 am)9% (Apr 11, 12:31 pm)29.73 "Hg (Apr 25, 12:15 am)
Average35 °F44%30.22 "Hg
* Reported Apr 10 1:15 am — Apr 25 1:15 am, Breckenridge, Weather by CustomWeather, © 2017

Note: Actual official high and low records may vary slightly from our data, if they occured in-between our weather recording intervals... More about our weather records

Advertising

Breckenridge Weather History for the Previous 24 Hours

Scroll right to see more
 ConditionsComfort  
Time TempWeatherWind HumidityBarometerVisibility
1:15 am
Tue, Apr 25
27 °FHeavy snow. Low clouds.N/A80%29.78 "Hg0 mi
12:55 am27 °FHeavy snow. Low clouds.N/A80%29.77 "Hg0 mi
12:35 am28 °FHeavy snow. Low clouds.N/A80%29.74 "Hg0 mi
12:15 am30 °FHeavy snow. Low clouds.N/A86%29.73 "Hg0 mi
11:54 pm
Mon, Apr 24
32 °FThundershowers. Low clouds.12 mph80%29.75 "Hg1 mi
11:34 pm32 °FLight snow. Overcast.7 mph80%29.76 "Hg3 mi
11:15 pm32 °FHeavy snow. Low clouds.9 mph80%29.78 "Hg1 mi
10:55 pm34 °FLight snow. Mostly cloudy.9 mph75%29.77 "Hg4 mi
10:35 pm34 °FOvercast.13 mph75%29.78 "Hg10 mi
10:15 pm34 °FOvercast.N/A70%29.79 "Hg10 mi
9:54 pm34 °FLight snow. Mostly cloudy.14 mph70%29.80 "Hg5 mi
9:34 pm34 °FMostly cloudy.N/A70%29.81 "Hg10 mi
9:15 pm34 °FMostly cloudy.N/A65%29.81 "Hg10 mi
8:55 pm34 °FOvercast.N/A70%29.81 "Hg10 mi
8:35 pm34 °FMostly cloudy.N/A65%29.82 "Hg10 mi
8:15 pm34 °FMostly cloudy.N/A70%29.82 "Hg10 mi
7:55 pm34 °FOvercast.N/A70%29.82 "Hg10 mi
7:15 pm34 °FCloudy.N/A65%29.83 "Hg10 mi
6:55 pm34 °FCloudy.N/A65%29.83 "Hg10 mi
6:35 pm34 °FCloudy.N/A70%29.84 "Hg10 mi
6:12 pm34 °FLight snow. Cloudy.N/A75%29.87 "Hg2 mi
5:55 pm34 °FLight snow. Cloudy.N/A70%29.87 "Hg1 mi
5:33 pm36 °FCloudy.N/A56%29.87 "Hg4 mi
5:15 pm36 °FCloudy.N/A56%29.87 "Hg3 mi
4:55 pm36 °FMostly cloudy.N/A65%29.85 "Hg10 mi
4:35 pm36 °FCloudy.13 mph65%29.85 "Hg5 mi
4:15 pm36 °FLight snow. Cloudy.20 mph60%29.87 "Hg3 mi
3:55 pm36 °FCloudy.12 mph60%29.88 "Hg5 mi
3:35 pm36 °FCloudy.8 mph60%29.89 "Hg10 mi
3:14 pm36 °FCloudy.14 mph60%29.89 "Hg5 mi
2:55 pm34 °FLight snow. Cloudy.21 mph65%29.90 "Hg2 mi
2:35 pm36 °FLight snow. Cloudy.10 mph60%29.92 "Hg5 mi
1:55 pm37 °FBroken clouds.17 mph52%29.91 "Hg7 mi
1:35 pm37 °FCloudy.13 mph48%29.91 "Hg3 mi
1:15 pm37 °FMostly cloudy.20 mph48%29.92 "Hg7 mi
12:55 pm37 °FCloudy.12 mph48%29.92 "Hg10 mi
12:35 pm37 °FBroken clouds.18 mph48%29.93 "Hg10 mi
12:15 pm37 °FBroken clouds.20 mph45%29.93 "Hg10 mi
11:55 am37 °FBroken clouds.15 mph45%29.95 "Hg7 mi
11:35 am36 °FLight snow. Partly sunny.18 mph41%29.96 "Hg1 mi
11:15 am36 °FLight snow. Sunny.21 mph32%29.95 "Hg2 mi
10:55 am36 °FSunny.14 mph32%29.96 "Hg5 mi
10:35 am34 °FLight snow. Dense fog.22 mph41%29.95 "Hg2 mi
10:15 am34 °FLight snow. Sunny.18 mph51%29.96 "Hg2 mi
9:55 am34 °FLight snow. Dense fog.20 mph51%29.97 "Hg2 mi
9:35 am34 °FLight snow. Dense fog.15 mph56%29.96 "Hg1 mi
9:15 am34 °FLight snow. Sunny.20 mph56%29.96 "Hg2 mi
8:55 am34 °FLight snow. Dense fog.N/A60%29.95 "Hg1 mi
8:35 am34 °FLight snow. Sunny.18 mph65%29.96 "Hg2 mi
7:55 am32 °FSnow. Sunny.N/A64%29.97 "Hg2 mi
7:35 am32 °FLight snow. Dense fog.N/A64%29.95 "Hg1 mi
7:15 am32 °FLight snow. Dense fog.N/A64%29.95 "Hg1 mi
6:55 am32 °FLight snow. Dense fog.24 mph64%29.95 "Hg1 mi
6:35 am32 °FLight snow. Partly sunny.N/A64%29.93 "Hg1 mi
6:14 am32 °FLight snow. Broken clouds.18 mph64%29.95 "Hg1 mi
5:55 am32 °FLight snow. Overcast.30 mph69%29.94 "Hg1 mi
5:35 am32 °FHeavy snow. Mostly cloudy.33 mph75%29.93 "Hg0 mi
5:15 am32 °FHeavy snow. Overcast.24 mph69%29.95 "Hg0 mi
4:55 am32 °FLight snow. Partly cloudy.29 mph75%29.95 "Hg1 mi
4:30 am32 °FLight snow. Passing clouds.16 mph69%29.97 "Hg2 mi
4:14 am32 °FLight snow. Partly cloudy.13 mph75%29.98 "Hg5 mi
3:55 am32 °FLight snow. Mostly cloudy.21 mph80%29.98 "Hg2 mi
3:35 am34 °FLight snow. Low clouds.21 mph81%29.99 "Hg1 mi
3:15 am34 °FHeavy snow. Low clouds.10 mph87%30.00 "Hg0 mi
2:55 am34 °FLight snow. Low clouds.14 mph81%30.00 "Hg2 mi
2:35 am34 °FLight snow. Mostly cloudy.14 mph81%30.00 "Hg1 mi
2:15 am34 °FLight snow. Mostly cloudy.17 mph81%30.01 "Hg2 mi
Weather by CustomWeather, © 2017

See weather overviewHow to use our weather pages